Location: Caltech
(34.1382°N, 118.1253°W)
Time: 16:50:12
(UTC-07:00)

Iridium 72 - Visible Passes

Search period start: 27 May 2015 00:00
Search period end: 06 June 2015 00:00
Orbit: 776 x 779 km, 86.4° (Epoch: 27 May)

Date Brightness Start Highest point End Pass type
(mag) Time Alt. Az. Time Alt. Az. Time Alt. Az.
27 May 5.5 20:20:57 10° S 20:26:09 79° E 20:31:23 10° N visible
28 May 8.2 21:30:00 10° WSW 21:33:41 19° WNW 21:37:11 10° NW visible
29 May 7.2 20:55:07 10° SSW 20:59:53 35° W 21:04:37 10° NNW visible
30 May 5.9 20:21:04 10° S 20:26:15 70° W 20:31:28 10° N visible
31 May 8.5 21:31:47 10° W 21:34:02 12° WNW 21:35:58 10° NW visible
01 Jun 8.0 20:55:54 10° SW 21:00:08 24° W 21:04:15 10° NNW visible
02 Jun 6.8 20:21:25 10° SSW 20:26:24 46° W 20:31:24 10° NNW visible
04 Jun 8.4 20:57:08 10° WSW 21:00:27 16° WNW 21:03:32 10° NW visible
